Change the Weather History Date:

Friday, October 26, 2012

  Actual Average Record
Temperature  
Mean Temperature 52 °F -  
Max Temperature 59 °F - 73 °F (2003)
Min Temperature 44 °F - 31 °F (2011)
Degree Days  
Heating Degree Days 13    
Month to date heating degree days 277  
Since 1 July heating degree days 394  
Cooling Degree Days 0    
Month to date cooling degree days 1  
Year to date cooling degree days 295  
Growing Degree Days 2 (Base 50)    
Moisture  
Dew Point 46 °F    
Average Humidity 80    
Maximum Humidity 93    
Minimum Humidity 67    
Precipitation  
Precipitation 0.01 in - 1.45 in (1955)
Month to date precipitation 4.19  
Year to date precipitation 34.16  
Sea Level Pressure  
Sea Level Pressure 30.19 in    
Wind  
Wind Speed 4 mph (South)    
Max Wind Speed 21 mph    
Max Gust Speed 33 mph    
Visibility 9 miles    
Events Rain    
T = Trace of Precipitation, MM = Missing Value Source: NWS Daily Summary

Daily Weather History Graph

Daily Weather History Graph

Search for Another Location

Airport or City:

Trip Planner

Search our weather history database for the weather conditions in past years. The results will help you decide how hot, cold, wet, or windy it might be!

Date:

Astronomy

Oct. 26, 2012 Rise Set
Actual Time 7:42 AM PDT 6:06 PM PDT
Civil Twilight 7:12 AM PDT 6:37 PM PDT
Nautical Twilight 6:37 AM PDT 7:11 PM PDT
Astronomical Twilight 6:03 AM PDT 7:45 PM PDT
Moon 4:30 PM PDT (10/26) 4:37 AM PDT (10/26)
Length of Visible Light 11h 24m
Length of Day
10h 24m
Waxing Gibbous, 91% of the Moon is Illuminated
Oct 26
Waxing Gibbous
Oct 29
Full
Nov 6
Last Quarter
Nov 13
New
Nov 20
First Quarter

Hourly Weather History & Observations

Time (PDT) Temp. Windchill Dew Point Humidity Pressure Visibility Wind Dir Wind Speed Gust Speed Precip Events Conditions
12:53 AM 45.0 °F 43.5 °F 43.0 °F 93% 30.30 in 10.0 mi ENE 3.5 mph - N/A   Overcast
1:53 AM 45.0 °F - 43.0 °F 93% 30.30 in 8.0 mi Calm Calm - N/A   Overcast
2:53 AM 45.0 °F - 43.0 °F 93% 30.28 in 8.0 mi Calm Calm - N/A   Overcast
3:53 AM 44.1 °F - 43.0 °F 96% 30.25 in 8.0 mi Calm Calm - N/A   Overcast
4:53 AM 45.0 °F - 43.0 °F 93% 30.24 in 8.0 mi Calm Calm - N/A   Overcast
5:53 AM 44.1 °F - 43.0 °F 96% 30.23 in 8.0 mi Calm Calm - N/A   Overcast
6:31 AM 44.6 °F 42.2 °F 42.8 °F 93% 30.23 in 8.0 mi South 4.6 mph - N/A   Overcast
6:53 AM 44.1 °F 41.5 °F 43.0 °F 96% 30.22 in 8.0 mi South 4.6 mph - N/A   Overcast
8:53 AM 46.0 °F - 44.1 °F 93% 30.20 in 6.0 mi Calm Calm - 0.00 in Rain Light Rain
9:53 AM 46.9 °F - 45.0 °F 93% 30.19 in 8.0 mi ESE 3.5 mph - 0.00 in   Overcast
10:22 AM 46.4 °F - 46.4 °F 100% 30.19 in 7.0 mi Calm Calm - N/A   Overcast
10:53 AM 48.0 °F - 45.0 °F 89% 30.19 in 5.0 mi SE 3.5 mph - 0.00 in Rain Light Rain
11:53 AM 48.9 °F - 46.9 °F 93% 30.17 in 10.0 mi Calm Calm - 0.01 in   Overcast
12:53 PM 50.0 °F - 48.0 °F 93% 30.17 in 10.0 mi Variable 4.6 mph - N/A   Overcast
1:53 PM 55.9 °F - 48.0 °F 75% 30.16 in 10.0 mi South 12.7 mph 20.7 mph N/A   Overcast
2:53 PM 57.9 °F - 48.9 °F 72% 30.15 in 10.0 mi SSW 15.0 mph 33.4 mph N/A   Mostly Cloudy
3:53 PM 57.0 °F - 48.9 °F 74% 30.15 in 10.0 mi SSW 10.4 mph 17.3 mph N/A   Mostly Cloudy
4:03 PM 57.2 °F - 48.2 °F 72% 30.14 in 10.0 mi SSW 10.4 mph 18.4 mph N/A   Mostly Cloudy
4:13 PM 59.0 °F - 48.2 °F 67% 30.14 in 10.0 mi SSW 9.2 mph - N/A   Mostly Cloudy
4:53 PM 57.9 °F - 46.9 °F 67% 30.15 in 10.0 mi SSW 11.5 mph - N/A   Partly Cloudy
6:53 PM 54.0 °F - 46.9 °F 77% 30.16 in 10.0 mi SSW 4.6 mph - N/A   Clear
8:53 PM 52.0 °F - 46.9 °F 83% 30.17 in 10.0 mi Calm Calm - N/A   Clear
9:53 PM 48.9 °F - 46.0 °F 90% 30.17 in 10.0 mi Calm Calm - N/A   Partly Cloudy
10:53 PM 51.1 °F - 46.9 °F 86% 30.16 in 10.0 mi SSW 3.5 mph - N/A   Overcast
11:53 PM 50.0 °F - 46.0 °F 86% 30.15 in 10.0 mi SSW 6.9 mph - N/A   Scattered Clouds